| time (UTC) | temp F | wind direction | speed MPH | gust MPH | rain 1hr in | rain 24hr in | rain mn in | humidity % | barometer mb |
| 20260505004526 | 51 | 5 | 7.0 | 18.0 | 0.00 | 0.00 | 0.00 | 39 | 1007.3 |
| 20260505003029 | 51 | 348 | 6.0 | 14.0 | 0.00 | 0.00 | 0.00 | 38 | 1007.1 |
| 20260505001528 | 52 | 351 | 6.0 | 15.0 | 0.00 | 0.00 | 0.00 | 36 | 1007.0 |
| 20260505000024 | 52 | 5 | 7.0 | 17.0 | 0.00 | 0.00 | 0.00 | 35 | 1007.1 |
| 20260504234526 | 52 | 351 | 5.0 | 13.0 | 0.00 | 0.00 | 0.00 | 34 | 1007.1 |
| 20260504233027 | 53 | 15 | 7.0 | 18.0 | 0.00 | 0.00 | 0.00 | 32 | 1007.0 |
| 20260504231517 | 54 | 5 | 7.0 | 20.0 | 0.00 | 0.00 | 0.00 | 33 | 1006.9 |
| 20260504230021 | 53 | 335 | 8.0 | 18.0 | 0.00 | 0.00 | 0.00 | 34 | 1007.0 |
| 20260504224509 | 54 | 13 | 12.0 | 21.0 | 0.00 | 0.00 | 0.00 | 32 | 1006.7 |
| 20260504223014 | 53 | 355 | 10.0 | 17.0 | 0.00 | 0.00 | 0.00 | 32 | 1006.7 |
| 20260504221519 | 53 | 22 | 10.0 | 20.0 | 0.00 | 0.00 | 0.00 | 32 | 1006.5 |
| 20260504220022 | 53 | 346 | 4.0 | 18.0 | 0.00 | 0.00 | 0.00 | 32 | 1006.6 |
| 20260504214510 | 53 | 13 | 8.0 | 18.0 | 0.00 | 0.00 | 0.00 | 32 | 1006.4 |
| 20260504213014 | 55 | 320 | 5.0 | 25.0 | 0.00 | 0.00 | 0.00 | 32 | 1006.4 |
| 20260504211521 | 54 | 25 | 10.0 | 20.0 | 0.00 | 0.00 | 0.00 | 32 | 1006.5 |
| 20260504210024 | 54 | 327 | 5.0 | 17.0 | 0.00 | 0.00 | 0.00 | 34 | 1006.7 |
| 20260504204512 | 55 | 31 | 10.0 | 18.0 | 0.00 | 0.00 | 0.00 | 34 | 1006.7 |
| 20260504203020 | 54 | 14 | 13.0 | 21.0 | 0.00 | 0.00 | 0.00 | 34 | 1007.0 |
| 20260504201505 | 53 | 5 | 7.0 | 16.0 | 0.00 | 0.00 | 0.00 | 35 | 1007.0 |
| 20260504200014 | 52 | 5 | 9.0 | 19.0 | 0.00 | 0.00 | 0.00 | 36 | 1007.1 |
| 20260504194502 | 53 | 15 | 9.0 | 20.0 | 0.00 | 0.00 | 0.00 | 35 | 1007.2 |
| 20260504193003 | 53 | 355 | 9.0 | 22.0 | 0.00 | 0.00 | 0.00 | 36 | 1007.0 |
| 20260504191503 | 53 | 351 | 3.0 | 22.0 | 0.00 | 0.00 | 0.00 | 37 | 1006.9 |
| 20260504190011 | 52 | 303 | 12.0 | 21.0 | 0.00 | 0.00 | 0.00 | 37 | 1006.8 |
| 20260504184503 | 53 | 5 | 11.0 | 24.0 | 0.00 | 0.00 | 0.00 | 39 | 1006.9 |
| 20260504183004 | 51 | 345 | 12.0 | 24.0 | 0.00 | 0.00 | 0.00 | 41 | 1006.9 |
| 20260504181503 | 52 | 360 | 9.0 | 22.0 | 0.00 | 0.00 | 0.00 | 44 | 1006.8 |
| 20260504180012 | 52 | 32 | 7.0 | 22.0 | 0.00 | 0.00 | 0.00 | 43 | 1006.8 |
| 20260504174516 | 51 | 277 | 12.0 | 25.0 | 0.00 | 0.00 | 0.00 | 44 | 1006.7 |
| 20260504173004 | 51 | 5 | 11.0 | 23.0 | 0.00 | 0.00 | 0.00 | 45 | 1006.3 |
| 20260504171503 | 52 | 325 | 12.0 | 20.0 | 0.00 | 0.00 | 0.00 | 43 | 1006.2 |
| 20260504081526 | 53 | 28 | 6.0 | 19.0 | 0.00 | 0.00 | 0.00 | 58 | 1000.2 |
| 20260504050010 | 57 | 259 | 6.0 | 15.0 | 0.00 | 0.00 | 0.00 | 47 | 999.5 |
| 20260504044518 | 57 | 243 | 8.0 | 16.0 | 0.00 | 0.00 | 0.00 | 47 | 999.6 |
| 20260504043020 | 57 | 263 | 5.0 | 13.0 | 0.00 | 0.00 | 0.00 | 48 | 999.6 |
| 20260504041523 | 56 | 225 | 5.0 | 10.0 | 0.00 | 0.00 | 0.00 | 48 | 999.9 |
| 20260504040007 | 56 | 232 | 5.0 | 9.0 | 0.00 | 0.00 | 0.00 | 48 | 1000.2 |
| 20260504034511 | 57 | 235 | 3.0 | 11.0 | 0.00 | 0.00 | 0.00 | 47 | 1000.5 |
| 20260504033016 | 57 | 254 | 6.0 | 11.0 | 0.00 | 0.00 | 0.00 | 46 | 1000.7 |
| 20260504031526 | 57 | 242 | 5.0 | 13.0 | 0.00 | 0.00 | 0.00 | 45 | 1001.0 |
| 20260504030014 | 58 | 229 | 4.0 | 10.0 | 0.00 | 0.00 | 0.00 | 44 | 1001.2 |
| 20260504024516 | 58 | 219 | 5.0 | 9.0 | 0.00 | 0.00 | 0.00 | 43 | 1001.3 |
| 20260504023019 | 59 | 250 | 4.0 | 9.0 | 0.00 | 0.00 | 0.00 | 41 | 1001.5 |
| 20260504021524 | 60 | 240 | 5.0 | 11.0 | 0.00 | 0.00 | 0.00 | 38 | 1001.6 |
| 20260504020036 | 62 | 233 | 4.0 | 9.0 | 0.00 | 0.00 | 0.00 | 37 | 1001.8 |
| 20260504014518 | 64 | 254 | 3.0 | 9.0 | 0.00 | 0.00 | 0.00 | 34 | 1002.1 |
| 20260504013025 | 65 | 258 | 2.0 | 7.0 | 0.00 | 0.00 | 0.00 | 32 | 1002.4 |
| 20260504011524 | 67 | 281 | 3.0 | 9.0 | 0.00 | 0.00 | 0.00 | 30 | 1002.7 |
| 20260504010026 | 68 | 244 | 4.0 | 13.0 | 0.00 | 0.00 | 0.00 | 28 | 1003.0 |